Regional Weather Roundup
Issued by NWS

Home | Current Version | Previous Version | Graphics & Text | Print | Product List | Glossary On
Versions: 1 2 3 4 5 6 7 8 9 10 11 12 13 14 15 16 17 18 19 20 21 22 23 24 25 26 27 28 29 30 31 32 33 34 35 36 37 38 39 40 41 42 43 44 45 46 47 48 49 50
000
ASUS45 KTFX 011019
RWRMT
MONTANA HOURLY WEATHER ROUNDUP
NATIONAL WEATHER SERVICE GREAT FALLS MT
419 AM MDT MON SEP 1 2014

NOTE: "FAIR" INDICATES FEW OR NO CLOUDS BELOW 12000 FEET WITH NO
SIGNIFICANT WEATHER AND/OR OBSTRUCTIONS TO VISIBILITY.

* THESE STATIONS ARE NOT UNDER NWS QUALITY CONTROL. THEY DO NOT
   REPORT WEATHER SUCH AS PRECIPITATION OR FOG.

MTZ001>007-043-011100-
WEST OF THE DIVIDE
CITY           SKY/WX    TMP DP  RH WIND       PRES   REMARKS
KALISPELL      CLOUDY    50  48  93 SW3       30.00S
MISSOULA       PTCLDY    46  39  77 CALM      30.04S
BUTTE          PTCLDY    45  37  74 NW3       30.07R
MULLAN PASS    CLEAR     41  36  82 VRB6      30.07S
* LINCOLN      N/A       40  38  93 S1         N/A
* LOOKOUT PASS N/A       43  38  83 N/A        N/A
* POLSON       N/A       49  44  83 N/A        N/A
* RONAN APT    MOCLDY    54  46  74 N/A        N/A
* SEELEY LAKE  N/A       35  34  96 NW1        N/A
* THOMP F APT  CLEAR     43  35  73 NE3        N/A
$$

MTZ008-052>055-011100-
SOUTHWEST MONTANA
CITY           SKY/WX    TMP DP  RH WIND       PRES   REMARKS
BOZEMAN        CLOUDY    50  46  86 S6        30.03R
DILLON         MOCLDY    46  39  77 SE6       30.03S
W YELLOWSTONE  CLOUDY    39  39 100 S3        30.09R
* THREE FORKS  MOCLDY    46  28  50 N/A        N/A
* BOULDER HILL N/A       47  29  50 N4         N/A
* MONIDA PASS  N/A       40  36  86 SW3        N/A
* RAYNOLDS PAS N/A       41  23  49 SE2        N/A
* WHITEHALL    N/A       48  40  74 E1G7       N/A
* WISE RIVER   N/A       37  33  85 W3         N/A
$$

MTZ009>010-012-014-046-048-049-054-011100-
EAST SLOPES AND CENTRAL MONTANA
CITY           SKY/WX    TMP DP  RH WIND       PRES   REMARKS
CUT BANK       MOCLDY    48  39  71 W10       29.92S
GREAT FALLS    PTCLDY    46  39  77 SW8       29.94R
HELENA         MOCLDY    55  37  51 SW13      29.99R
MALMSTROM AFB  MOCLDY    46  41  83 SW7       29.96R
* CONRAD       MOCLDY    55  43  64 W13        N/A
* EAST GLACIER N/A       49  37  63 W18G27     N/A
* MONARCH      N/A       42  35  76 SW9        N/A
* PENDROY      N/A       53  37  55 NW14G22    N/A
* ROGERS PASS  N/A       45  36  71 SE10G24    N/A
* SAINT MARY   N/A       51  39  64 S6G12      N/A
* SWEET GRASS  N/A       49  39  69 W14        N/A
* WHITE SULPH  N/A       43  35  73 E2         N/A
$$

MTZ011-013-016-021-035-040-045-047-050-051-011100-
NORTH CENTRAL MONTANA
CITY           SKY/WX    TMP DP  RH WIND       PRES   REMARKS
HAVRE          CLOUDY    54  45  72 SW9       29.88R
LEWISTOWN      CLOUDY    52  39  61 NW3       29.95S
* CHINOOK      CLOUDY    54  48  80 N3        29.88R
* FORT BENTON  PTCLDY    54  41  62 SW7       29.93R
* CHESTER      N/A       50  39  66 W5G10      N/A
* DENTON       N/A       47  41  80 SW6        N/A
* GEYSER       N/A       45  39  80 NW4G9      N/A
* JUDITH GAP   N/A       47  39  74 N/A        N/A
* LOMA         N/A       51  42  71 SW4        N/A
$$

MTZ017>020-022>027-061-062-011100-
NORTHEAST MONTANA
CITY           SKY/WX    TMP DP  RH WIND       PRES   REMARKS
GLASGOW        PTCLDY    52  48  86 W3        29.84S
GLENDIVE       CLOUDY    54  46  74 N5        29.85R
JORDAN         MOCLDY    50  46  86 W3        29.86S
SIDNEY         CLEAR     48  46  93 W3        29.83R
WOLF POINT     PTCLDY    50  46  86 W6        29.84R
* BEAVER HILL  N/A       51  46  83 N/A        N/A
* CIRCLE       N/A       52  48  86 N/A        N/A
* LINDSAY DVD  N/A       50  46  86 NW9        N/A
* NAVAJO       N/A       48  46  93 W12        N/A
* SACO         N/A       48  46  93 S2         N/A
$$

MTZ028>042-056>058-011100-
SOUTHCENTRAL AND SOUTHEAST MONTANA
CITY           SKY/WX    TMP DP  RH WIND       PRES   REMARKS
BAKER          PTCLDY    48  45  89 NW6       29.86R
BILLINGS       CLOUDY    57  45  64 W9        29.94S
LIVINGSTON     LGT RAIN  48  45  89 NW3       30.01R
MILES CITY     PTCLDY    55  45  69 W13       29.86R
* LAUREL APT   MOCLDY    54  45  72 N/A        N/A
* ROUNDUP APT  PTCLDY    50  45  83 SW8        N/A
* ALZADA       N/A       48  47  96 E1         N/A
* HYSHAM       N/A       52  45  77 SW1        N/A
* LAME DEER    N/A       52  42  69 W7         N/A
* REED POINT   N/A       52  50  93 SW2        N/A
* ROSCOE HILL  N/A       50  36  59 SW1G6      N/A
$$

REGIONAL REPORTS...DAKOTAS
CITY           SKY/WX    TMP DP  RH WIND       PRES   REMARKS
WILLISTON      PTCLDY    50  46  86 SW5       29.79R
DICKINSON      PTCLDY    50  45  83 W7        29.79S
BEACH          N/A       48  48 100 W6        29.84R
CROSBY         CLOUDY    52  52 100 SW5       29.78R
TIOGA          CLEAR     48  48 100 W5        29.81R
WATFORD CITY   CLEAR     46  46 100 SW3       29.78S
BISMARCK       CLEAR     54  52  93 CALM      29.78F
GRAND FORKS    MOCLDY    54  52  93 W5        29.67R
FARGO          CLOUDY    54  52  93 W5        29.68S
BUFFALO SD     CLEAR     52  46  80 W6        29.80F
RAPID CITY     PTCLDY    50  46  86 NW6       29.90S
$$

REGIONAL REPORTS...WYOMING/IDAHO/WASHINGTON
CITY           SKY/WX    TMP DP  RH WIND       PRES   REMARKS
GILLETTE       PTCLDY    48  43  83 CALM      29.96R
SHERIDAN       CLOUDY    54  46  74 NW3       29.97R
CODY           CLOUDY    52  43  72 NE6       29.99S
YELLOWSTONE LA MOCLDY    39  37  93 VRB3      30.14F
SALMON         PTCLDY    50  39  66 CALM      30.04R
MULLAN PASS    CLEAR     41  36  82 VRB6      30.07S
SAND POINT     CLOUDY    54  54 100 N3        29.98S
SPOKANE        PTCLDY    50  37  61 S7        29.99R
$$

REGIONAL REPORTS...ALBERTA
CITY           SKY/WX    TMP DP  RH WIND       PRES   REMARKS
CALGARY        FAIR      45  36  71 SW7       29.88S
LETHBRIDGE     CLEAR     48  41  77 W14G21    29.89S
MEDICINE HAT   MOCLDY    54  50  86 S14G20    29.86F
EDMONTON       FAIR      43  37  79 SW5       29.81F
WATERTON GATE  N/A       50  39  66 SW12G17    N/A
CARDSTON       N/A       52  39  61 W12        N/A
MILK RIVER     N/A       46  41  83 NW9        N/A
$$

REGIONAL REPORTS...SASKATCHEWAN
CITY           SKY/WX    TMP DP  RH WIND       PRES   REMARKS
SWIFT CURRENT  CLEAR     45  43  93 SW10      29.83R
REGINA         N/A       46  46 100 NE5       29.77R
VAL MARIE      N/A       43  41  93 CALM       N/A
ASSINIBOIA     N/A       46  43  89 W8         N/A
CORONACH       N/A       41  41 100 W2         N/A

$$




USA.gov is the U.S. government's official web portal to all federal, state and local government web resources and services.